Location: Bu�n Treun
(12.1333°N, 108.3167°E)
Time: 13:14:03
(UTC+00:00)

Cosmos 2333 Rocket - Pass Details

Date: 13 July 2020
Orbit: 837 x 864 km, 70.8° (Epoch: 06 August)

Event Time Altitude Azimuth Distance (km) Brightness Sun altitude
Rises 12:02:53 0° 202° (SSW) 3,382 5.3 -11.3°
Reaches altitude 10° 12:05:19 10° 204° (SSW) 2,450 4.6 -11.9°
Maximum altitude 12:10:54 67° 286° (WNW) 909 2.6 -13.1°
Drops below altitude 10° 12:16:32 10° 9° (N) 2,467 4.8 -14.3°
Sets 12:19:00 0° 12° (NNE) 3,407 5.5 -14.9°
